Location: Civry
(47.2902°N, 4.6156°E)
Time: 12:37:54
(UTC+00:00)

Nadezhda 3 Rocket - Pass Details

Date: 09 April 2020
Orbit: 956 x 1000 km, 82.9° (Epoch: 03 June)

Event Time Altitude Azimuth Distance (km) Brightness Sun altitude
Exits shadow 21:41:21 58° 217° (SW) 1,139 4.1 -28.5°
Maximum altitude 21:42:33 75° 280° (W) 1,026 4.1 -28.6°
Drops below altitude 10° 21:48:51 10° 6° (N) 2,742 6.9 -29.2°
Sets 21:51:23 0° 8° (N) 3,687 7.7 -29.4°
